NKS165 KDTW-KLAS

Flight info

Callsign NKS165
Flight time N/A
Altitude 38000
Route KAYLN3 SMUUV OBK IOW J60 HVE GGAPP CHOWW4
Aircraft A20N/M-SDE2E3FGHIRWXY/LB1

Departure

Time 2026-05-07 02:41
Airport Detroit Metropolitan Wayne County Airport (KDTW)

Arrival

Time N/A
Airport Harry Reid International Airport (KLAS)
Time Latitude Longitude Altitude Speed Heading
2026-05-07 02:41 42.06242 -83.61161 10852 ft 288 kts 262°
2026-05-07 02:41 42.06406 -83.63877 11467 ft 299 kts 287°
2026-05-07 02:41 42.07409 -83.66371 12346 ft 305 kts 300°
2026-05-07 02:41 42.08638 -83.68673 13245 ft 307 kts 301°
2026-05-07 02:42 42.09921 -83.70989 14108 ft 309 kts 301°
2026-05-07 02:42 42.11208 -83.73323 14826 ft 312 kts 300°
2026-05-07 02:42 42.12499 -83.75688 15525 ft 315 kts 299°
2026-05-07 02:42 42.13799 -83.78083 16242 ft 318 kts 298°
2026-05-07 02:43 42.15092 -83.80476 16957 ft 320 kts 298°
2026-05-07 02:43 42.16406 -83.82915 17651 ft 322 kts 297°
2026-05-07 02:43 42.17726 -83.85368 18335 ft 325 kts 297°
2026-05-07 02:43 42.19057 -83.87845 18939 ft 327 kts 297°
2026-05-07 02:44 42.20392 -83.90331 19578 ft 327 kts 296°
2026-05-07 02:44 42.21730 -83.92825 20214 ft 328 kts 296°
2026-05-07 02:44 42.23072 -83.95328 20850 ft 329 kts 296°
2026-05-07 02:44 42.24398 -83.97806 21468 ft 330 kts 296°
2026-05-07 02:45 42.25743 -84.00322 22066 ft 332 kts 295°
2026-05-07 02:45 42.27099 -84.02859 22661 ft 333 kts 295°
2026-05-07 02:45 42.28459 -84.05408 23228 ft 334 kts 295°
2026-05-07 02:45 42.29825 -84.07969 23749 ft 336 kts 295°
2026-05-07 02:46 42.31194 -84.10537 24183 ft 338 kts 295°
2026-05-07 02:46 42.32552 -84.13091 24583 ft 340 kts 295°
2026-05-07 02:46 42.33939 -84.15697 24993 ft 342 kts 295°
2026-05-07 02:46 42.35332 -84.18318 25405 ft 344 kts 295°
2026-05-07 02:47 42.36729 -84.20947 25813 ft 345 kts 295°
2026-05-07 02:47 42.38139 -84.23602 26197 ft 347 kts 295°
2026-05-07 02:47 42.39535 -84.26236 26577 ft 349 kts 295°
2026-05-07 02:47 42.40900 -84.28956 26951 ft 346 kts 291°
2026-05-07 02:48 42.42005 -84.31817 27301 ft 340 kts 284°
2026-05-07 02:48 42.42776 -84.34818 27651 ft 335 kts 278°
2026-05-07 02:48 42.43200 -84.37905 28002 ft 332 kts 271°
2026-05-07 02:48 42.43354 -84.40984 28334 ft 332 kts 269°
2026-05-07 02:49 42.43438 -84.44121 28676 ft 333 kts 268°
2026-05-07 02:49 42.43512 -84.47272 29006 ft 335 kts 268°
2026-05-07 02:49 42.43587 -84.50438 29331 ft 337 kts 268°
2026-05-07 02:49 42.43664 -84.53578 29639 ft 339 kts 268°
2026-05-07 02:50 42.43743 -84.56771 29941 ft 341 kts 268°
2026-05-07 02:50 42.43823 -84.59988 30198 ft 342 kts 268°
2026-05-07 02:50 42.43903 -84.63219 30489 ft 342 kts 268°
2026-05-07 02:50 42.43982 -84.66436 30821 ft 342 kts 268°
2026-05-07 02:51 42.44061 -84.69646 31137 ft 341 kts 268°
2026-05-07 02:51 42.44138 -84.72859 31428 ft 341 kts 268°
2026-05-07 02:51 42.44215 -84.76066 31715 ft 341 kts 268°
2026-05-07 02:51 42.44289 -84.79231 31988 ft 341 kts 268°
2026-05-07 02:52 42.44364 -84.82436 32268 ft 341 kts 268°
2026-05-07 02:52 42.44437 -84.85643 32549 ft 340 kts 268°
2026-05-07 02:52 42.44510 -84.88851 32816 ft 340 kts 268°
2026-05-07 02:52 42.44582 -84.92051 33082 ft 340 kts 268°
2026-05-07 02:53 42.44653 -84.95258 33347 ft 340 kts 268°
2026-05-07 02:53 42.44722 -84.98424 33591 ft 340 kts 268°
2026-05-07 02:53 42.44791 -85.01624 33826 ft 340 kts 268°
2026-05-07 02:53 42.44859 -85.04828 34055 ft 340 kts 268°
2026-05-07 02:54 42.44927 -85.08036 34239 ft 340 kts 268°
2026-05-07 02:54 42.44993 -85.11242 34378 ft 341 kts 268°
2026-05-07 02:54 42.45058 -85.14432 34522 ft 342 kts 268°
2026-05-07 02:54 42.45123 -85.17654 34677 ft 343 kts 268°
2026-05-07 02:55 42.45187 -85.20907 34830 ft 344 kts 268°
2026-05-07 02:55 42.45251 -85.24147 34983 ft 345 kts 268°
2026-05-07 02:55 42.45314 -85.27396 35125 ft 345 kts 268°
2026-05-07 02:55 42.45376 -85.30658 35266 ft 346 kts 268°
2026-05-07 02:56 42.45436 -85.33876 35415 ft 347 kts 268°
2026-05-07 02:56 42.45497 -85.37148 35551 ft 347 kts 268°
2026-05-07 02:56 42.45556 -85.40424 35682 ft 348 kts 268°
2026-05-07 02:56 42.45615 -85.43709 35820 ft 349 kts 268°
2026-05-07 02:57 42.45673 -85.46998 35956 ft 349 kts 268°
2026-05-07 02:57 42.45730 -85.50246 36084 ft 350 kts 268°
2026-05-07 02:57 42.45786 -85.53559 36219 ft 350 kts 268°
2026-05-07 02:57 42.45842 -85.56861 36342 ft 351 kts 268°
2026-05-07 02:58 42.45896 -85.60173 36471 ft 351 kts 268°
2026-05-07 02:58 42.45950 -85.63486 36590 ft 352 kts 268°
2026-05-07 02:58 42.46002 -85.66767 36698 ft 353 kts 268°
2026-05-07 02:58 42.46054 -85.70088 36810 ft 353 kts 268°
2026-05-07 02:59 42.46105 -85.73413 36927 ft 354 kts 268°
2026-05-07 02:59 42.46155 -85.76748 37040 ft 354 kts 268°
2026-05-07 02:59 42.46204 -85.80086 37148 ft 354 kts 268°
2026-05-07 02:59 42.46253 -85.83428 37245 ft 355 kts 268°
2026-05-07 03:00 42.46331 -85.89003 37411 ft 356 kts 268°
2026-05-07 03:00 42.46392 -85.93447 37542 ft 357 kts 268°
2026-05-07 03:00 42.46437 -85.96813 37636 ft 357 kts 268°
2026-05-07 03:01 42.46523 -86.03529 37827 ft 357 kts 268°
2026-05-07 03:01 42.46593 -86.09140 37981 ft 358 kts 268°
2026-05-07 03:02 42.46261 -86.15864 38016 ft 357 kts 261°